Vertical_Velocity
2 1 2 1 -0 3 -1 -1 -1 1 -1 1 -2 3 -3 -2 0 -1 2 2 2 0 -4 1 0 0 -1 1 1 -2 -1 -1 -1 -2 0 -1 -1 -0 -1 1 1 1 2
3 2 -0 1 -1 -2 -2 2 -2 1 -0 1 0 2 -2 1 3 -0 1 1 1 4 2 -0 -0 0 2 -1 1 1 -0 -0 -2 -2 0 -2 -0 0 -1 0 2 2 1
-7 -2 -3 -4 4 -4 -4 -2 -6 -1 -2 2 2 3 9 7 2 -1 1 -3 -0 2 -1 2 -2 -0 -1 2 2 1 2 1 1 -0 -1 -2 -1 -3 2 1 1 -1 -1
5 5 3 -2 -2 2 3 1 -2 -1 -2 -2 0 -0 -3 -7 -2 -0 1 2 0 -0 -2 1 2 -0 1 -1 1 2 1 1 1 -0 -1 -0 0 -2 -4 -1 -2 -2 -1
-4 -4 -4 2 3 1 -4 1 1 -0 -2 1 1 5 1 2 1 -1 -0 -0 -1 -1 -1 0 1 0 2 1 0 -0 0 -2 1 -1 -0 1 0 2 0 -10 -2 0 -0
-4 1 1 3 -3 3 4 3 -1 3 -5 -0 -1 -1 -1 -1 0 -1 -0 -1 -0 1 0 2 -2 2 -0 1 1 3 -1 -0 -0 -1 -3 0 0 -1 3 2 -5 -4 -4
-4 -0 -2 -5 -2 -2 1 1 2 -1 -0 -3 0 -3 -3 -5 -0 4 -2 0 -1 -3 -1 -0 -0 -4 0 -0 -0 2 -1 -0 1 2 -2 0 -0 -1 -1 1 -1 -3 -8
-3 -7 -1 2 -4 -1 -1 2 2 3 3 0 2 -1 2 -5 2 -5 -0 3 -2 2 2 2 2 2 -0 0 0 0 1 0 -0 -1 -2 0 0 1 -3 -0 4 -4 -1
1 -4 -2 -4 -2 -4 0 1 3 2 2 -3 7 0 -0 -1 -7 -4 4 2 0 2 2 3 2 2 2 1 3 -1 1 -0 1 -4 -1 -2 3 0 -0 -0 3 9 -2
0 3 -2 -5 -6 -2 -1 0 1 -4 -3 0 2 4 2 2 -1 5 -2 1 -0 -2 2 1 1 -0 2 3 2 0 1 -1 -0 1 1 1 4 0 4 4 6 6 9
-3 -2 -2 2 6 8 0 2 -0 3 2 2 4 2 -2 -1 1 6 -1 -6 -0 0 -1 2 1 -1 -0 -1 -2 -4 2 -1 4 2 2 -2 6 -3 -1 4 4 2 11
0 -4 -2 -3 -3 -3 1 -1 -1 -3 0 -4 1 1 2 1 1 0 -5 -1 -3 -1 -1 1 2 3 1 7 4 5 6 -1 -3 1 4 -7 12 -3 7 3 3 -0 6
1 1 3 -1 -1 3 2 -2 -1 -4 3 2 -2 -1 -2 -0 -3 -2 1 6 5 1 3 -0 -3 1 -2 3 -1 2 2 -1 2 4 5 -1 7 1 3 3 -0 -0 -1
-2 -1 1 -1 0 2 5 2 2 -2 -4 4 2 1 0 -0 1 1 3 4 2 3 3 2 0 -0 1 1 -2 -2 1 1 0 9 0 -3 -3 -3 -4 -2 -2 -1 -0
-0 -1 -4 -2 -2 -6 -3 -0 2 4 1 -2 -2 -3 0 1 -1 -1 -2 -0 2 -1 0 -1 3 2 4 -1 1 1 1 -0 -1 -3 0 2 1 6 1 5 5 1 6
-1 -4 2 2 -4 -3 -3 -4 -1 -4 3 -2 -3 -0 0 -1 -2 1 -2 2 -0 1 1 0 3 1 -0 -1 -2 3 0 6 7 -3 -0 8 10 6 -6 6 4 -5 -8
1 -2 -2 -2 4 7 11 5 5 4 1 1 1 -1 -0 0 1 1 -1 -4 -1 -1 0 3 4 1 0 1 -4 1 3 -4 3 2 -3 0 -0 5 5 3 2 -1 6
3 3 -1 1 -0 2 2 1 0 -2 4 5 2 1 5 3 2 1 2 3 1 3 3 2 7 2 3 -0 1 3 -1 -3 1 -4 0 -1 -1 0 -2 -1 7 -0 -0
-1 -0 1 -1 2 -3 -1 1 3 5 1 2 3 1 2 2 0 -0 -0 -1 0 1 2 2 1 -0 2 0 0 7 -8 5 -3 -0 -1 -2 2 -1 0 -2 1 -0 -1
1 -1 -1 1 2 2 -0 3 4 2 -0 1 0 1 2 2 6 3 4 1 0 1 1 1 2 2 0 -0 1 2 3 1 2 -1 2 1 2 0 1 -0 -0 -1 -1
1 1 1 3 3 4 4 1 3 3 4 2 2 1 1 0 -0 -2 1 1 1 0 -0 0 -1 1 1 0 2 1 -0 -0 1 3 2 1 0 -0 0 -1 -1 -1 -1
0 1 3 1 1 0 2 3 2 1 2 2 0 0 1 -1 1 0 -0 -0 1 2 1 1 2 1 1 1 0 -1 -1 2 1 0 -1 1 1 1 0 -1 -1 1 1
-0 -0 2 2 2 2 0 -1 -0 -0 -0 1 1 1 -1 1 -1 1 2 1 1 1 1 0 2 1 0 0 0 0 -1 -1 -2 -0 2 1 1 0 -1 -1 0 -0 -0
-2 0 -1 -1 -1 -1 -0 1 1 1 1 0 0 0 2 -0 -0 -0 -1 -1 -1 0 2 1 1 1 1 1 1 -0 -1 -1 0 1 0 0 -0 -0 -0 -1 -1 -1 -1
3 -2 3 -1 -0 -0 -1 -0 0 1 0 -0 0 -0 -0 1 1 1 2 2 2 1 0 0 1 1 0 -1 -2 -1 -1 0 1 0 -1 -1 0 1 2 1 0 1 1
-1 -0 2 1 -1 -0 -1 -0 -0 -0 1 0 -0 0 1 0 1 2 -0 0 1 2 1 1 0 -2 -3 0 1 3 1 -0 -1 -1 -0 0 -0 -1 -2 -2 -1 -1 -1
Height
1470 1476 1481 1486 1494 1500 1503 1509 1515 1518 1523 1527 1531 1536 1539 1545 1548 1551 1554 1556 1558 1561 1563 1568 1569 1572 1574 1578 1579 1581 1583 1585 1586 1587 1587 1586 1587 1587 1587 1587 1587 1588 1588
1468 1474 1479 1485 1490 1495 1501 1507 1513 1517 1521 1526 1530 1534 1538 1542 1546 1550 1552 1555 1557 1561 1560 1566 1568 1570 1573 1575 1577 1579 1581 1583 1584 1585 1586 1585 1585 1584 1584 1584 1584 1585 1585
1464 1470 1476 1480 1486 1491 1497 1503 1510 1515 1519 1525 1528 1533 1537 1541 1544 1547 1549 1552 1555 1559 1561 1563 1565 1568 1571 1573 1575 1576 1579 1580 1582 1583 1586 1585 1584 1583 1582 1581 1581 1582 1582
1461 1467 1472 1477 1481 1487 1494 1501 1507 1511 1516 1521 1526 1529 1532 1535 1538 1543 1547 1549 1553 1556 1559 1561 1562 1566 1568 1570 1573 1575 1576 1578 1580 1581 1583 1584 1585 1584 1582 1581 1580 1581 1580
1457 1464 1470 1474 1479 1485 1491 1497 1503 1508 1512 1517 1522 1526 1530 1534 1537 1542 1546 1547 1550 1553 1556 1558 1561 1563 1565 1567 1570 1571 1573 1575 1577 1578 1580 1581 1582 1581 1581 1578 1577 1578 1578
1457 1463 1469 1474 1478 1483 1488 1493 1498 1503 1507 1512 1517 1521 1526 1530 1534 1538 1541 1543 1547 1550 1552 1555 1558 1560 1563 1564 1567 1569 1570 1572 1573 1575 1576 1578 1578 1579 1578 1576 1575 1574 1574
1454 1460 1465 1469 1473 1478 1483 1488 1494 1498 1502 1507 1512 1513 1519 1523 1529 1533 1537 1540 1542 1544 1548 1551 1553 1556 1559 1562 1564 1565 1567 1569 1570 1571 1572 1574 1574 1575 1576 1574 1572 1570 1570
1447 1452 1457 1463 1468 1473 1479 1484 1488 1492 1497 1501 1506 1511 1514 1519 1525 1528 1532 1536 1539 1542 1546 1548 1550 1552 1555 1558 1560 1562 1563 1565 1566 1567 1568 1570 1571 1571 1572 1571 1570 1566 1564
1441 1445 1451 1458 1464 1469 1473 1478 1484 1488 1492 1497 1501 1505 1509 1516 1520 1522 1527 1531 1536 1540 1543 1545 1547 1549 1552 1554 1555 1557 1559 1560 1562 1563 1564 1565 1567 1567 1567 1566 1565 1564 1560
1433 1439 1445 1451 1457 1463 1469 1475 1480 1483 1487 1492 1495 1499 1506 1512 1517 1520 1524 1527 1531 1535 1538 1541 1543 1545 1548 1549 1551 1553 1554 1555 1556 1558 1559 1560 1561 1561 1561 1560 1560 1559 1557
1428 1433 1438 1445 1451 1457 1462 1468 1474 1479 1482 1486 1491 1496 1502 1508 1512 1516 1519 1523 1527 1530 1533 1536 1538 1540 1542 1544 1546 1548 1549 1550 1552 1552 1553 1555 1556 1555 1555 1554 1553 1552 1550
1423 1429 1434 1440 1445 1450 1455 1462 1468 1474 1477 1481 1486 1492 1498 1503 1506 1510 1514 1518 1521 1524 1528 1530 1533 1535 1536 1538 1539 1541 1544 1545 1546 1548 1548 1548 1549 1548 1548 1546 1545 1544 1543
1422 1426 1430 1434 1439 1443 1448 1454 1461 1468 1473 1477 1482 1487 1492 1496 1500 1504 1508 1511 1515 1517 1520 1523 1525 1527 1530 1531 1533 1535 1537 1538 1539 1540 1540 1541 1540 1539 1539 1538 1536 1535 1534
1416 1420 1424 1428 1433 1439 1443 1448 1455 1461 1469 1473 1477 1481 1486 1490 1495 1498 1501 1505 1508 1510 1512 1514 1517 1520 1522 1523 1524 1526 1528 1529 1530 1527 1531 1532 1532 1530 1529 1528 1528 1527 1525
1411 1412 1417 1421 1425 1431 1436 1443 1449 1455 1461 1467 1472 1476 1481 1484 1488 1491 1495 1498 1500 1503 1506 1507 1509 1511 1512 1513 1515 1518 1518 1519 1522 1523 1523 1523 1521 1520 1521 1521 1518 1518 1517
1405 1408 1410 1412 1416 1421 1427 1434 1441 1448 1453 1459 1464 1469 1473 1477 1481 1484 1487 1489 1493 1495 1498 1500 1502 1503 1504 1505 1506 1510 1510 1511 1511 1514 1515 1514 1512 1513 1511 1513 1510 1510 1509
1401 1401 1403 1407 1411 1416 1420 1426 1433 1439 1445 1450 1455 1460 1465 1469 1473 1477 1479 1483 1485 1488 1489 1491 1493 1495 1497 1497 1499 1502 1503 1504 1503 1505 1506 1507 1506 1505 1505 1502 1502 1503 1500
1397 1398 1399 1402 1406 1411 1417 1422 1428 1435 1439 1443 1448 1453 1457 1461 1464 1469 1472 1475 1478 1480 1482 1484 1485 1487 1488 1489 1491 1493 1496 1496 1498 1498 1499 1500 1499 1498 1498 1497 1496 1496 1494
1393 1394 1395 1398 1403 1408 1414 1419 1424 1428 1434 1439 1443 1447 1450 1454 1458 1462 1466 1469 1471 1474 1476 1477 1479 1481 1482 1483 1485 1487 1490 1489 1492 1492 1493 1493 1494 1492 1491 1490 1489 1489 1488
1389 1390 1393 1395 1399 1403 1409 1415 1420 1424 1429 1434 1438 1442 1445 1449 1453 1456 1459 1462 1465 1468 1470 1472 1474 1475 1477 1478 1481 1483 1484 1485 1486 1487 1487 1487 1487 1486 1485 1484 1483 1482 1482
1386 1388 1389 1393 1397 1402 1406 1411 1417 1421 1425 1428 1432 1437 1440 1444 1448 1451 1455 1457 1460 1462 1465 1467 1469 1471 1472 1473 1475 1477 1478 1480 1481 1481 1481 1481 1481 1480 1479 1479 1478 1477 1476
1386 1387 1389 1392 1396 1401 1405 1409 1414 1418 1421 1425 1428 1433 1436 1440 1444 1447 1450 1453 1455 1457 1460 1462 1464 1466 1468 1469 1471 1473 1474 1476 1476 1477 1477 1477 1476 1476 1475 1475 1475 1474 1472
1388 1389 1391 1393 1396 1400 1404 1408 1412 1415 1419 1422 1425 1429 1434 1436 1441 1444 1446 1449 1451 1454 1456 1458 1461 1463 1465 1467 1468 1469 1470 1472 1473 1474 1473 1473 1473 1472 1471 1471 1471 1470 1468
1390 1392 1394 1396 1399 1402 1405 1409 1411 1414 1417 1420 1424 1427 1431 1434 1438 1440 1443 1446 1449 1451 1452 1455 1457 1460 1462 1464 1465 1467 1468 1470 1471 1471 1470 1470 1470 1470 1469 1469 1468 1467 1464
1392 1394 1395 1397 1400 1402 1405 1408 1411 1414 1416 1419 1422 1425 1429 1432 1435 1438 1441 1444 1446 1448 1451 1453 1456 1458 1460 1462 1464 1466 1467 1468 1468 1468 1468 1468 1468 1467 1466 1466 1465 1463 1460
1393 1394 1396 1396 1399 1401 1404 1407 1410 1413 1415 1418 1421 1424 1427 1430 1433 1436 1438 1441 1444 1447 1449 1452 1454 1456 1459 1461 1462 1463 1464 1464 1465 1465 1465 1465 1464 1463 1462 1461 1460 1458 1456